Location: Niverville
(49.6028°N, 97.0419°W)
Time: 06:42:49
(UTC-06:00)

Amateur Radio Satellites - All Passes

Search period start: 02 March 2015 06:12
Search period end: 03 March 2015 06:12
Location: Niverville, 49.6028°N, 97.0419°W

Satellite Date Start Highest point End Downlink Frequencies (MHz)
Time Altitude Azimuth
Cubesat XI-IV 02 Mar 06:15:49 06:20:41 34° 95° (E) 06:25:35 437.490
SO-50 02 Mar 06:15:55 06:18:32 14° 354° (N) 06:21:10 436.795
AIST 1 02 Mar 06:23:58 06:26:00 13° 83° (E) 06:28:15
CUTE-I 02 Mar 06:24:54 06:29:57 40° 97° (E) 06:35:00 437.470
PRISM 02 Mar 06:35:49 06:39:44 39° 262° (W) 06:43:42 437.425
JAS-2 02 Mar 06:41:29 06:47:50 34° 299° (WNW) 06:54:30 435.910
PCSat 02 Mar 06:50:41 06:55:40 36° 246° (WSW) 07:00:34 145.827
STRAND 1 02 Mar 07:01:20 07:06:18 46° 261° (W) 07:11:17 437.568
GONETS M04 02 Mar 07:09:53 07:15:44 20° 50° (NE) 07:21:55
AO-7 02 Mar 07:11:37 07:18:21 28° 312° (NW) 07:24:52 29.400- 29.500
CUBESAT XI-V 02 Mar 07:12:10 07:16:02 24° 269° (W) 07:19:51 437.345
Cubesat XI-IV 02 Mar 07:55:52 08:00:54 41° 294° (WNW) 08:05:53 437.490
SO-50 02 Mar 07:57:38 08:00:56 18° 18° (NNE) 08:04:18 436.795
AIST 1 02 Mar 07:58:46 08:03:08 73° 281° (WNW) 08:07:33
CUTE-I 02 Mar 08:05:08 08:10:01 36° 296° (WNW) 08:14:50 437.470
RS-15 02 Mar 08:25:33 08:36:57 86° 231° (SW) 08:48:51 29.354- 29.394
AAUSAT CUBESAT 2 02 Mar 08:41:22 08:44:03 17° 89° (E) 08:46:51 437.432
UNISAT 6 02 Mar 08:42:04 08:44:28 15° 59° (ENE) 08:46:59 437.425
COMPASS 1 02 Mar 08:43:13 08:46:18 20° 91° (E) 08:49:27 437.405
BRITE-PL 02 Mar 08:46:56 08:51:29 46° 97° (E) 08:55:42 437.365/2234.400
GOMX 1 02 Mar 08:54:40 08:58:50 37° 95° (E) 09:02:48 467.674
ISS 02 Mar 09:02:55 09:04:03 12° 137° (SE) 09:05:18 145.825
GONETS M04 02 Mar 09:05:51 09:14:36 71° 76° (ENE) 09:23:23
TIGRISAT 02 Mar 09:06:14 09:09:39 23° 64° (ENE) 09:13:06 435.000
HO-68 02 Mar 09:07:05 09:14:05 52° 100° (E) 09:21:05 435.675
AO-7 02 Mar 09:07:09 09:08:22 10° 338° (NNW) 09:09:22 29.400- 29.500
QB50P1 02 Mar 09:08:07 09:10:35 16° 59° (ENE) 09:13:10 145.935-145.965
SEEDS 02 Mar 09:09:11 09:13:12 41° 98° (E) 09:17:14 437.485
CANX-2 02 Mar 09:11:28 09:15:39 56° 100° (E) 09:19:51 2200.000
QB50P2 02 Mar 09:11:30 09:14:11 17° 60° (ENE) 09:16:59 145.880/145.840
ANTELSAT 02 Mar 09:19:04 09:22:53 30° 66° (ENE) 09:26:42 437.575/2403.000
BUGSAT 1 02 Mar 09:21:09 09:23:42 16° 60° (ENE) 09:26:22 437.445
UKube-1 02 Mar 09:24:35 09:25:36 11° 85° (E) 09:26:51 .
DUCHIFAT 1 02 Mar 09:26:25 09:29:38 22° 63° (ENE) 09:32:58 145.980
CUTE 1.7 + AOD 2 02 Mar 09:30:07 09:34:24 79° 102° (ESE) 09:38:39 437.475
O/OREOS (USA 219) 02 Mar 09:31:36 09:35:46 36° 108° (ESE) 09:40:01 437.305
DOVE 4 02 Mar 09:31:54 09:36:15 61° 101° (E) 09:40:22 437.250
UWE-3 02 Mar 09:32:08 09:34:51 17° 89° (E) 09:37:40 435.000/436.395/437.385
SO-50 02 Mar 09:37:54 09:42:39 47° 41° (NE) 09:47:27 436.795
CINEMA 3 02 Mar 09:43:46 09:47:49 44° 98° (E) 09:51:48 145.822/145.860
POLYITAN 1 02 Mar 09:45:21 09:49:09 32° 67° (ENE) 09:53:01 437.675
POPSAT HIP 1 02 Mar 09:46:07 09:49:56 32° 67° (ENE) 09:53:47 437.405
DELFI C3 02 Mar 09:51:31 09:55:14 33° 96° (E) 09:58:59 145.870
Oscar 11 02 Mar 10:04:35 10:08:51 56° 100° (E) 10:13:08 145.826/435.025
CUBEBUG 2 02 Mar 10:07:44 10:11:45 44° 98° (E) 10:15:45 437.445
NANOSAT C BR1 02 Mar 10:09:05 10:13:15 53° 71° (ENE) 10:17:27 145.865
AAUSAT CUBESAT 2 02 Mar 10:15:59 10:20:06 56° 288° (WNW) 10:24:12 437.432
UNISAT 6 02 Mar 10:16:23 10:20:47 78° 255° (WSW) 10:25:08 437.425
COMPASS 1 02 Mar 10:18:14 10:22:18 47° 289° (WNW) 10:26:20 437.405
CUSAT 1 02 Mar 10:23:24 10:25:06 15° 65° (ENE) 10:26:48 437.405
BRITE-PL 02 Mar 10:25:58 10:29:46 24° 298° (WNW) 10:33:16 437.365/2234.400
DX 1 02 Mar 10:28:02 10:32:17 47° 99° (E) 10:36:30 434.975-435.025
AISAT 02 Mar 10:29:32 10:33:05 23° 92° (E) 10:36:39 437.250
GOMX 1 02 Mar 10:33:04 10:36:53 27° 296° (WNW) 10:40:29 467.674
CUBEBUG 1 02 Mar 10:35:58 10:37:46 12° 85° (E) 10:39:46 437.445
ISS 02 Mar 10:36:48 10:39:57 54° 154° (SSE) 10:43:08 145.825
RS-15 02 Mar 10:38:51 10:48:07 29° 255° (WSW) 10:57:16 29.354- 29.394
VELOX 1 02 Mar 10:39:07 10:42:56 27° 94° (E) 10:46:45 145.980
QB50P1 02 Mar 10:41:42 10:46:00 74° 258° (WSW) 10:50:18 145.935-145.965
TIGRISAT 02 Mar 10:42:00 10:46:14 45° 262° (W) 10:50:24 435.000
QB50P2 02 Mar 10:45:24 10:49:41 67° 259° (WSW) 10:53:59 145.880/145.840
SEEDS 02 Mar 10:45:25 10:48:51 24° 296° (WNW) 10:52:13 437.485
CANX-2 02 Mar 10:48:14 10:51:16 19° 298° (WNW) 10:54:13 2200.000
FUNcube-1 02 Mar 10:48:22 10:52:33 81° 103° (ESE) 10:56:42 145.935
ZACube-1 02 Mar 10:49:26 10:53:38 84° 103° (ESE) 10:57:47 437.345
ESTCUBE 1 02 Mar 10:53:09 10:56:32 21° 90° (E) 11:00:01 437.505/2401.250
BUGSAT 1 02 Mar 10:54:27 10:58:43 72° 257° (WSW) 11:03:01 437.445
HO-68 02 Mar 10:55:06 11:01:43 41° 300° (WNW) 11:08:17 435.675
ANTELSAT 02 Mar 10:55:40 10:59:41 33° 264° (W) 11:03:35 437.575/2403.000
HUMSAT D 02 Mar 10:56:19 11:00:22 54° 100° (E) 11:04:24 437.325/437.525
UKube-1 02 Mar 10:58:09 11:02:32 88° 104° (ESE) 11:06:53 .
50 SAT 02 Mar 10:58:13 11:01:57 40° 98° (E) 11:05:42 437.505
DUCHIFAT 1 02 Mar 11:01:05 11:05:14 48° 261° (W) 11:09:25 145.980
GONETS M04 02 Mar 11:03:28 11:10:50 31° 278° (W) 11:18:02
Oscar 19 02 Mar 11:04:45 11:06:38 12° 52° (NE) 11:08:45 437.125/150
CUTE 1.7 + AOD 2 02 Mar 11:07:28 11:09:50 14° 301° (WNW) 11:12:02 437.475
UWE-3 02 Mar 11:07:43 11:11:48 53° 289° (WNW) 11:15:50 435.000/436.395/437.385
DOVE 4 02 Mar 11:10:40 11:13:37 18° 300° (WNW) 11:16:22 437.250
O/OREOS (USA 219) 02 Mar 11:11:05 11:15:15 33° 308° (NW) 11:19:26 437.305
SO-50 02 Mar 11:18:39 11:23:11 36° 241° (WSW) 11:27:38 436.795
POLYITAN 1 02 Mar 11:21:17 11:25:07 30° 265° (W) 11:28:55 437.675
CINEMA 3 02 Mar 11:21:32 11:24:50 22° 297° (WNW) 11:28:00 145.822/145.860
POPSAT HIP 1 02 Mar 11:22:01 11:25:51 30° 265° (W) 11:29:39 437.405
DELFI C3 02 Mar 11:26:53 11:30:23 27° 294° (WNW) 11:33:49 145.870
DANDE 02 Mar 11:33:11 11:36:03 72° 260° (W) 11:38:39 436.750
Oscar 11 02 Mar 11:41:34 11:44:42 19° 298° (WNW) 11:47:45 145.826/435.025
CUBEBUG 2 02 Mar 11:45:01 11:48:15 21° 297° (WNW) 11:51:22 437.445
NANOSAT C BR1 02 Mar 11:46:23 11:49:28 19° 270° (W) 11:52:28 145.865
DX 1 02 Mar 12:04:48 12:08:19 23° 298° (WNW) 12:11:42 434.975-435.025
AISAT 02 Mar 12:05:39 12:09:56 45° 291° (WNW) 12:14:09 437.250
CUSAT 1 02 Mar 12:06:07 12:07:57 16° 268° (W) 12:09:40 437.405
CUBEBUG 1 02 Mar 12:10:23 12:14:51 83° 285° (WNW) 12:19:16 437.445
Gurwin Techsat 1B 02 Mar 12:10:52 12:13:17 14° 52° (NE) 12:15:54 435.225
ISS 02 Mar 12:13:11 12:16:24 61° 353° (N) 12:19:37 145.825
VELOX 1 02 Mar 12:15:28 12:19:37 38° 293° (WNW) 12:23:43 145.980
FUNcube-1 02 Mar 12:26:16 12:28:22 13° 301° (WNW) 12:30:21 145.935
ZACube-1 02 Mar 12:27:27 12:29:28 13° 302° (WNW) 12:31:20 437.345
ESTCUBE 1 02 Mar 12:29:19 12:33:47 53° 290° (WNW) 12:38:12 437.505/2401.250
HUMSAT D 02 Mar 12:32:57 12:35:49 18° 298° (WNW) 12:38:37 437.325/437.525
50 SAT 02 Mar 12:33:42 12:36:47 22° 296° (WNW) 12:39:48 437.505
UKube-1 02 Mar 12:35:50 12:38:07 14° 303° (WNW) 12:40:16 .
ITAMSAT 1 02 Mar 12:38:34 12:42:49 27° 61° (ENE) 12:47:10 435.822/435.867
Oscar 19 02 Mar 12:40:03 12:45:07 64° 71° (ENE) 12:50:14 437.125/150
AO-7 02 Mar 12:41:40 12:46:20 17° 36° (NE) 12:51:15 29.400- 29.500
SPROUT 02 Mar 12:44:06 12:48:24 63° 101° (E) 12:52:39 437.525
HO-68 02 Mar 12:45:10 12:47:42 12° 323° (NW) 12:49:57 435.675
TISAT 1 02 Mar 12:49:24 12:53:38 63° 102° (ESE) 12:57:48 437.305
ITUPSAT 1 02 Mar 12:53:13 12:55:37 14° 86° (E) 12:58:15 437.325
JAS-2 02 Mar 13:34:26 13:35:19 10° 41° (NE) 13:36:27 435.910
Gurwin Techsat 1B 02 Mar 13:47:09 13:52:24 68° 72° (ENE) 13:57:43 435.225
CUBEBUG 1 02 Mar 13:48:32 13:50:35 13° 304° (WNW) 13:52:27 437.445
HORYU 2 02 Mar 13:48:48 13:52:05 21° 62° (ENE) 13:55:29 437.375
ISS 02 Mar 13:49:47 13:53:01 73° 14° (NNE) 13:56:16 145.825
SWISSCUBE 02 Mar 13:53:34 13:58:17 51° 100° (E) 14:02:59 437.505
BEESAT 02 Mar 14:02:14 14:07:00 57° 101° (E) 14:11:44 436.000
YUBILEINY 02 Mar 14:15:30 14:16:58 11° 68° (ENE) 14:19:06 435.215
ITAMSAT 1 02 Mar 14:16:55 14:22:03 55° 260° (W) 14:27:13 435.822/435.867
KKS-1 02 Mar 14:19:11 14:22:19 19° 90° (E) 14:25:33 437.445
Oscar 19 02 Mar 14:21:06 14:24:59 21° 270° (W) 14:28:44 437.125/150
SPROUT 02 Mar 14:21:09 14:24:06 18° 299° (WNW) 14:26:55 437.525
TISAT 1 02 Mar 14:26:12 14:29:02 17° 300° (WNW) 14:31:44 437.305
STARS 02 Mar 14:26:42 14:29:10 15° 88° (E) 14:31:48 437.465
ITUPSAT 1 02 Mar 14:29:24 14:34:17 85° 285° (WNW) 14:39:07 437.325
AO-7 02 Mar 14:29:28 14:37:22 50° 59° (ENE) 14:45:19 29.400- 29.500
JAS-2 02 Mar 15:13:28 15:18:44 43° 64° (ENE) 15:24:43 435.910
HORYU 2 02 Mar 15:24:07 15:28:28 53° 260° (W) 15:32:50 437.375
ISS 02 Mar 15:26:20 15:29:19 33° 212° (SSW) 15:32:17 145.825
Gurwin Techsat 1B 02 Mar 15:28:59 15:32:57 20° 271° (W) 15:36:48 435.225
SWISSCUBE 02 Mar 15:31:58 15:35:54 25° 298° (WNW) 15:39:44 437.505
BEESAT 02 Mar 15:40:46 15:44:31 23° 299° (WNW) 15:48:12 436.000
KKS-1 02 Mar 15:54:59 15:59:21 55° 289° (WNW) 16:03:41 437.445
STARS 02 Mar 16:01:48 16:06:12 69° 287° (WNW) 16:10:32 437.465
YUBILEINY 02 Mar 16:03:30 16:11:46 51° 90° (E) 16:20:13 435.215
Cubesat XI-IV 02 Mar 16:04:53 16:08:06 17° 54° (NE) 16:11:29 437.490
ITUPSAT 1 02 Mar 16:08:48 16:11:31 15° 304° (NW) 16:14:05 437.325
CUTE-I 02 Mar 16:13:28 16:17:03 19° 56° (NE) 16:20:46 437.470
AO-7 02 Mar 16:22:15 16:30:17 48° 261° (W) 16:38:17 29.400- 29.500
M-CUBED/EXP-1 PRIME 02 Mar 16:42:51 16:46:37 32° 103° (ESE) 16:50:40 437.505
AUBIESAT-1 02 Mar 16:45:01 16:48:44 31° 102° (ESE) 16:52:44 437.475
BEESAT 3 02 Mar 16:48:39 16:50:33 13° 112° (ESE) 16:52:37 437.485
JAS-2 02 Mar 16:58:54 17:04:03 36° 268° (W) 17:09:43 435.910
MOZHAYETS 4 02 Mar 17:04:45 17:09:16 49° 99° (E) 17:13:47
BEESAT 2 02 Mar 17:12:49 17:15:46 20° 115° (ESE) 17:18:51 435.950
STARS 02 Mar 17:40:49 17:41:55 11° 306° (NW) 17:42:50 437.465
Cubesat XI-IV 02 Mar 17:42:07 17:47:29 83° 74° (ENE) 17:52:56 437.490
CUTE-I 02 Mar 17:51:09 17:56:32 86° 255° (WSW) 18:01:58 437.470
HO-68 02 Mar 17:56:18 18:00:26 17° 44° (NE) 18:04:48 435.675
O/OREOS (USA 219) 02 Mar 17:58:01 18:01:47 24° 48° (NE) 18:05:35 437.305
YUBILEINY 02 Mar 18:00:31 18:08:51 45° 293° (WNW) 18:17:11 435.215
AIST 1 02 Mar 18:01:33 18:05:48 44° 74° (ENE) 18:10:03
VERMONT LUNAR 02 Mar 18:13:03 18:13:57 11° 160° (SSE) 18:14:55 437.305
PRISM 02 Mar 18:14:30 18:17:45 21° 92° (E) 18:21:03 437.425
M-CUBED/EXP-1 PRIME 02 Mar 18:17:50 18:21:33 33° 298° (WNW) 18:25:29 437.505
AUBIESAT-1 02 Mar 18:19:51 18:23:37 35° 298° (WNW) 18:27:37 437.475
BEESAT 3 02 Mar 18:23:57 18:28:05 87° 307° (NW) 18:32:16 437.485
BRITE-PL 02 Mar 18:25:06 18:28:31 17° 58° (ENE) 18:32:00 437.365/2234.400
GOMX 1 02 Mar 18:31:36 18:33:54 13° 56° (NE) 18:36:21 467.674
CANX-2 02 Mar 18:37:17 18:37:34 10° 56° (NE) 18:38:03 2200.000
MOZHAYETS 4 02 Mar 18:42:31 18:46:15 24° 297° (WNW) 18:49:54
AIST 2 02 Mar 18:46:16 18:50:28 59° 125° (SE) 18:54:43 435.215
BEESAT 2 02 Mar 18:49:29 18:53:36 61° 313° (NW) 18:57:45 435.950
CUTE 1.7 + AOD 2 02 Mar 18:54:01 18:56:02 14° 59° (ENE) 18:58:12 437.475
CUBESAT XI-V 02 Mar 19:03:21 19:08:05 65° 102° (ESE) 19:12:46 437.345
DOVE 4 02 Mar 19:05:44 19:08:53 17° 60° (ENE) 19:12:05 437.250
STRAND 1 02 Mar 19:07:14 19:12:10 43° 98° (E) 19:17:04 437.568
CINEMA 3 02 Mar 19:16:00 19:17:29 12° 57° (ENE) 19:19:08 145.822/145.860
Cubesat XI-IV 02 Mar 19:24:54 19:28:23 17° 274° (W) 19:31:41 437.490
Oscar 11 02 Mar 19:31:03 19:32:15 11° 56° (NE) 19:33:38 145.826/435.025
CUTE-I 02 Mar 19:34:37 19:37:32 14° 275° (W) 19:40:13 437.470
AAUSAT CUBESAT 2 02 Mar 19:36:46 19:39:51 21° 63° (ENE) 19:43:02 437.432
O/OREOS (USA 219) 02 Mar 19:37:02 19:41:34 55° 248° (WSW) 19:46:02 437.305
CUBEBUG 2 02 Mar 19:38:01 19:38:26 10° 56° (NE) 19:39:05 437.445
COMPASS 1 02 Mar 19:39:00 19:42:21 25° 65° (ENE) 19:45:47 437.405
AIST 1 02 Mar 19:39:49 19:43:15 22° 272° (W) 19:46:33
HO-68 02 Mar 19:39:55 19:46:53 60° 66° (ENE) 19:53:57 435.675
VERMONT LUNAR 02 Mar 19:48:36 19:51:05 18° 176° (S) 19:53:34 437.305
PRISM 02 Mar 19:49:25 19:53:29 45° 291° (WNW) 19:57:31 437.425
PHONESAT 2.4 02 Mar 19:52:24 19:54:50 17° 169° (S) 19:57:17 2401.200-2431.200
DX 1 02 Mar 19:55:14 19:56:31 11° 55° (NE) 19:57:58 434.975-435.025
PCSat 02 Mar 19:55:39 19:58:34 15° 106° (ESE) 20:01:43 145.827
BRITE-PL 02 Mar 20:00:47 20:06:26 86° 76° (ENE) 20:11:49 437.365/2234.400
BEESAT 3 02 Mar 20:03:39 20:06:47 20° 331° (NNW) 20:09:53 437.485
YUBILEINY 02 Mar 20:05:19 20:08:50 12° 321° (NW) 20:11:55 435.215
SEEDS 02 Mar 20:05:32 20:09:35 51° 71° (ENE) 20:13:41 437.485
GOMX 1 02 Mar 20:06:00 20:11:20 70° 73° (ENE) 20:16:23 467.674
CANX-2 02 Mar 20:08:36 20:12:48 70° 74° (ENE) 20:17:01 2200.000
FUNcube-1 02 Mar 20:14:21 20:16:46 15° 60° (ENE) 20:19:17 145.935
ZACube-1 02 Mar 20:15:28 20:17:59 16° 61° (ENE) 20:20:38 437.345
GONETS M04 02 Mar 20:20:36 20:25:07 16° 73° (ENE) 20:30:09
UKube-1 02 Mar 20:22:52 20:25:49 18° 60° (ENE) 20:28:53 .
AIST 2 02 Mar 20:25:39 20:29:23 27° 325° (NW) 20:33:07 435.215
CUTE 1.7 + AOD 2 02 Mar 20:27:12 20:31:25 83° 257° (WSW) 20:35:40 437.475
BEESAT 2 02 Mar 20:29:50 20:32:37 17° 335° (NNW) 20:35:20 435.950
UWE-3 02 Mar 20:33:22 20:37:00 26° 65° (ENE) 20:40:37 435.000/436.395/437.385
DOVE 4 02 Mar 20:41:03 20:46:12 82° 257° (WSW) 20:51:04 437.250
CUBESAT XI-V 02 Mar 20:41:40 20:45:07 20° 299° (WNW) 20:48:26 437.345
DELFI C3 02 Mar 20:43:43 20:47:27 37° 69° (ENE) 20:51:14 145.870
STRAND 1 02 Mar 20:46:42 20:51:16 32° 297° (WNW) 20:55:45 437.568
CINEMA 3 02 Mar 20:49:19 20:54:03 72° 74° (ENE) 20:58:35 145.822/145.860
Oscar 11 02 Mar 21:03:27 21:07:45 76° 74° (ENE) 21:12:04 145.826/435.025
CUBEBUG 2 02 Mar 21:10:00 21:14:28 67° 73° (ENE) 21:18:47 437.445
AAUSAT CUBESAT 2 02 Mar 21:11:15 21:15:15 46° 261° (W) 21:19:17 437.432
COMPASS 1 02 Mar 21:14:02 21:17:56 38° 263° (W) 21:21:51 437.405
VERMONT LUNAR 02 Mar 21:26:10 21:28:17 15° 193° (SSW) 21:30:23 437.305
DX 1 02 Mar 21:27:40 21:32:03 72° 73° (ENE) 21:36:27 434.975-435.025
HO-68 02 Mar 21:28:42 21:35:05 33° 267° (W) 21:41:24 435.675
PHONESAT 2.4 02 Mar 21:29:57 21:32:35 19° 186° (S) 21:35:12 2401.200-2431.200
AISAT 02 Mar 21:31:31 21:35:37 36° 67° (ENE) 21:39:46 437.250
PCSat 02 Mar 21:35:50 21:41:16 84° 124° (SE) 21:46:45 145.827
CUBEBUG 1 02 Mar 21:35:57 21:39:07 20° 61° (ENE) 21:42:23 437.445
VELOX 1 02 Mar 21:40:51 21:45:05 42° 68° (ENE) 21:49:21 145.980
BRITE-PL 02 Mar 21:42:00 21:45:38 17° 274° (W) 21:48:58 437.365/2234.400
SEEDS 02 Mar 21:42:46 21:45:45 18° 270° (W) 21:48:39 437.485
BEESAT 3 02 Mar 21:45:54 21:46:25 10° 354° (N) 21:46:53 437.485
GOMX 1 02 Mar 21:46:05 21:49:56 19° 271° (W) 21:53:32 467.674
CANX-2 02 Mar 21:47:02 21:49:18 14° 273° (W) 21:51:25 2200.000
FUNcube-1 02 Mar 21:48:18 21:52:40 75° 257° (WSW) 21:56:57 145.935
50 SAT 02 Mar 21:49:02 21:52:49 45° 71° (ENE) 21:56:38 437.505
ZACube-1 02 Mar 21:49:35 21:53:57 72° 258° (WSW) 21:58:13 437.345
HUMSAT D 02 Mar 21:52:22 21:56:32 69° 74° (ENE) 22:00:41 437.325/437.525
ESTCUBE 1 02 Mar 21:56:55 22:00:55 32° 66° (ENE) 22:05:00 437.505/2401.250
UKube-1 02 Mar 21:57:17 22:01:36 62° 258° (WSW) 22:05:56 .
UNISAT 6 02 Mar 22:05:10 22:07:40 15° 88° (E) 22:10:20 437.425
AIST 2 02 Mar 22:07:41 22:09:23 12° 348° (NNW) 22:11:02 435.215
UWE-3 02 Mar 22:09:17 22:13:26 39° 263° (W) 22:17:30 435.000/436.395/437.385
SPROUT 02 Mar 22:09:28 22:11:13 12° 57° (ENE) 22:13:06 437.525
GONETS M04 02 Mar 22:11:54 22:20:29 69° 94° (E) 22:29:07
TISAT 1 02 Mar 22:13:10 22:14:51 12° 57° (ENE) 22:16:42 437.305
DELFI C3 02 Mar 22:19:32 22:22:49 23° 268° (W) 22:26:04 145.870
DOVE 4 02 Mar 22:22:35 22:24:44 12° 275° (W) 22:26:37 437.250
QB50P1 02 Mar 22:24:15 22:26:19 14° 87° (E) 22:28:33 145.935-145.965
QB50P2 02 Mar 22:27:51 22:30:15 15° 88° (E) 22:32:48 145.880/145.840
CINEMA 3 02 Mar 22:28:49 22:31:46 16° 272° (W) 22:34:30 145.822/145.860
TIGRISAT 02 Mar 22:29:29 22:33:02 25° 93° (E) 22:36:39 435.000
BUGSAT 1 02 Mar 22:34:25 22:36:12 13° 86° (E) 22:38:09 437.445
DUCHIFAT 1 02 Mar 22:42:21 22:45:28 20° 91° (E) 22:48:38 145.980
Oscar 11 02 Mar 22:42:22 22:44:33 13° 274° (W) 22:46:33 145.826/435.025
ANTELSAT 02 Mar 22:42:54 22:46:50 35° 96° (E) 22:50:49 437.575/2403.000
CUBEBUG 2 02 Mar 22:48:53 22:51:39 16° 272° (W) 22:54:14 437.445
RS-15 02 Mar 22:55:23 23:04:52 38° 110° (ESE) 23:14:42 29.354- 29.394
POLYITAN 1 02 Mar 23:02:15 23:06:04 32° 96° (E) 23:09:52 437.675
POPSAT HIP 1 02 Mar 23:02:43 23:06:31 31° 95° (E) 23:10:18 437.405
DX 1 02 Mar 23:06:20 23:08:53 15° 272° (W) 23:11:15 434.975-435.025
DANDE 02 Mar 23:07:41 23:11:07 16° 91° (E) 23:14:20 436.750
AISAT 02 Mar 23:08:20 23:12:18 29° 265° (W) 23:16:16 437.250
PHONESAT 2.4 02 Mar 23:09:37 23:10:14 10° 202° (SSW) 23:10:47 2401.200-2431.200
CUBEBUG 1 02 Mar 23:10:44 23:15:08 59° 259° (W) 23:19:34 437.445
VELOX 1 02 Mar 23:18:07 23:21:51 25° 267° (W) 23:25:33 145.980
PCSat 02 Mar 23:20:48 23:25:21 26° 326° (NW) 23:29:53 145.827
BEESAT 3 02 Mar 23:24:16 23:26:15 13° 18° (NNE) 23:28:18 437.485
50 SAT 02 Mar 23:25:11 23:28:06 19° 269° (W) 23:30:54 437.505
NANOSAT C BR1 02 Mar 23:25:39 23:29:49 53° 100° (E) 23:33:57 145.865
SWISSCUBE 02 Mar 23:29:07 23:31:56 16° 57° (ENE) 23:34:53 437.505
HUMSAT D 02 Mar 23:30:36 23:32:51 14° 273° (W) 23:34:57 437.325/437.525
ESTCUBE 1 02 Mar 23:33:39 23:37:48 34° 265° (W) 23:41:56 437.505/2401.250
CUSAT 1 02 Mar 23:35:08 23:40:05 29° 96° (E) 23:44:06 437.405
BEESAT 02 Mar 23:37:27 23:40:29 17° 58° (ENE) 23:43:39 436.000
UNISAT 6 02 Mar 23:40:42 23:44:58 64° 288° (WNW) 23:49:15 437.425
SPROUT 02 Mar 23:42:20 23:46:40 83° 75° (ENE) 23:51:03 437.525
TISAT 1 02 Mar 23:45:44 23:50:02 84° 75° (ENE) 23:54:21 437.305
AIST 2 02 Mar 23:48:05 23:49:47 12° 12° (NNE) 23:51:33 435.215
BEESAT 2 02 Mar 23:49:48 23:52:19 15° 22° (NNE) 23:54:53 435.950
QB50P1 02 Mar 23:58:32 00:02:47 72° 287° (WNW) 00:06:59 145.935-145.965
QB50P2 03 Mar 00:02:27 00:06:41 64° 287° (WNW) 00:10:51 145.880/145.840
ITUPSAT 1 03 Mar 00:03:46 00:07:44 27° 63° (ENE) 00:11:49 437.325
TIGRISAT 03 Mar 00:05:58 00:09:57 38° 292° (WNW) 00:13:55 435.000
BUGSAT 1 03 Mar 00:08:07 00:12:19 75° 286° (WNW) 00:16:26 437.445
GONETS M04 03 Mar 00:10:26 00:18:09 33° 299° (WNW) 00:25:46
DUCHIFAT 1 03 Mar 00:17:31 00:21:36 47° 290° (WNW) 00:25:38 145.980
ANTELSAT 03 Mar 00:19:52 00:23:35 28° 294° (WNW) 00:27:15 437.575/2403.000
POLYITAN 1 03 Mar 00:38:14 00:41:58 30° 294° (WNW) 00:45:39 437.675
POPSAT HIP 1 03 Mar 00:38:39 00:42:24 30° 294° (WNW) 00:46:04 437.405
DANDE 03 Mar 00:47:46 00:54:20 86° 285° (WNW) 00:59:08 436.750
Oscar 19 03 Mar 00:48:23 00:51:23 16° 86° (E) 00:54:35 437.125/150
BEESAT 3 03 Mar 01:01:35 01:05:29 38° 40° (NE) 01:09:21 437.485
NANOSAT C BR1 03 Mar 01:02:17 01:05:22 20° 298° (WNW) 01:08:22 145.865
SWISSCUBE 03 Mar 01:04:24 01:09:13 87° 256° (WSW) 01:14:03 437.505
RS-15 03 Mar 01:05:32 01:16:28 76° 314° (NW) 01:27:43 29.354- 29.394
PCSat 03 Mar 01:08:14 01:10:44 13° 351° (N) 01:13:11 145.827
BEESAT 03 Mar 01:13:02 01:17:49 79° 258° (WSW) 01:22:39 436.000
CUSAT 1 03 Mar 01:17:28 01:22:57 40° 287° (WNW) 01:27:06 437.405
KKS-1 03 Mar 01:21:23 01:25:16 30° 65° (ENE) 01:29:13 437.445
SPROUT 03 Mar 01:21:35 01:23:27 12° 274° (W) 01:25:08 437.525
TISAT 1 03 Mar 01:24:48 01:26:32 12° 274° (W) 01:28:03 437.305
AIST 2 03 Mar 01:26:00 01:29:46 28° 36° (NE) 01:33:31 435.215
BEESAT 2 03 Mar 01:27:19 01:31:26 52° 45° (NE) 01:35:29 435.950
STARS 03 Mar 01:27:37 01:31:09 24° 63° (ENE) 01:34:45 437.465
QB50P1 03 Mar 01:37:03 01:37:57 10° 305° (NW) 01:38:40 145.935-145.965
SO-50 03 Mar 01:37:19 01:41:13 28° 117° (ESE) 01:45:20 436.795
ITUPSAT 1 03 Mar 01:40:51 01:45:28 46° 261° (W) 01:50:07 437.325
BUGSAT 1 03 Mar 01:46:03 01:47:06 11° 304° (NW) 01:47:59 437.445
Gurwin Techsat 1B 03 Mar 01:59:45 02:03:28 19° 88° (E) 02:07:19 435.225
YUBILEINY 03 Mar 02:07:51 02:15:36 33° 61° (ENE) 02:23:28 435.215
ITAMSAT 1 03 Mar 02:25:20 02:30:13 38° 97° (E) 02:35:05 435.822/435.867
Oscar 19 03 Mar 02:26:19 02:31:29 81° 287° (WNW) 02:36:37 437.125/150
DANDE 03 Mar 02:34:47 02:38:03 15° 297° (WNW) 02:40:43 436.750
MOZHAYETS 4 03 Mar 02:37:10 02:38:54 12° 56° (NE) 02:40:49
BEESAT 3 03 Mar 02:39:47 02:43:33 34° 240° (WSW) 02:47:15 437.485
SWISSCUBE 03 Mar 02:45:49 02:47:55 12° 275° (W) 02:49:48 437.505
PCSat 03 Mar 02:53:23 02:56:29 15° 17° (NNE) 02:59:39 145.827
BEESAT 03 Mar 02:55:11 02:56:36 11° 277° (W) 02:57:45 436.000
KKS-1 03 Mar 02:57:44 03:01:52 35° 264° (W) 03:06:00 437.445
STARS 03 Mar 03:03:09 03:07:26 45° 261° (W) 03:11:42 437.465
AIST 2 03 Mar 03:04:26 03:08:39 54° 236° (WSW) 03:12:46 435.215
BEESAT 2 03 Mar 03:06:00 03:09:21 23° 244° (WSW) 03:12:37 435.950
HORYU 2 03 Mar 03:11:37 03:15:01 21° 92° (E) 03:18:29 437.375
SO-50 03 Mar 03:16:58 03:21:34 53° 317° (NW) 03:26:19 436.795
RS-15 03 Mar 03:20:40 03:30:52 40° 345° (NNW) 03:41:21 29.354- 29.394
M-CUBED/EXP-1 PRIME 03 Mar 03:36:37 03:39:57 85° 71° (ENE) 03:43:29 437.505
AUBIESAT-1 03 Mar 03:38:16 03:41:36 78° 69° (ENE) 03:45:09 437.475
Gurwin Techsat 1B 03 Mar 03:38:44 03:44:03 71° 289° (WNW) 03:49:21 435.225
JAS-2 03 Mar 04:01:18 04:07:46 33° 91° (E) 04:14:41 435.910
YUBILEINY 03 Mar 04:04:29 04:13:17 71° 265° (W) 04:22:01 435.215
ITAMSAT 1 03 Mar 04:04:56 04:09:42 36° 296° (WNW) 04:14:24 435.822/435.867
Oscar 19 03 Mar 04:07:10 04:10:09 15° 305° (NW) 04:12:55 437.125/150
MOZHAYETS 4 03 Mar 04:10:52 04:15:25 76° 74° (ENE) 04:20:02
AO-7 03 Mar 04:18:17 04:26:13 47° 99° (E) 04:34:09 29.400- 29.500
CUBESAT XI-V 03 Mar 04:35:54 04:38:43 16° 58° (ENE) 04:41:41 437.345
PCSat 03 Mar 04:36:25 04:41:29 38° 42° (NE) 04:46:34 145.827
HORYU 2 03 Mar 04:47:40 04:51:58 48° 290° (WNW) 04:56:16 437.375
STRAND 1 03 Mar 04:50:41 04:53:57 18° 56° (NE) 04:57:22 437.568
SO-50 03 Mar 04:59:47 05:03:10 19° 340° (NNW) 05:06:35 436.795
PRISM 03 Mar 05:09:04 05:12:38 29° 65° (ENE) 05:16:17 437.425
Gurwin Techsat 1B 03 Mar 05:20:25 05:23:13 14° 307° (NW) 05:25:50 435.225
RS-15 03 Mar 05:36:11 05:46:35 42° 18° (NNE) 05:57:27 29.354- 29.394
JAS-2 03 Mar 05:46:02 05:53:15 67° 290° (WNW) 06:00:58 435.910
MOZHAYETS 4 03 Mar 05:50:41 05:53:18 14° 274° (W) 05:55:45
Cubesat XI-IV 03 Mar 05:55:36 05:59:51 24° 91° (E) 06:04:12 437.490
